Location: Squirrel Cove
(50.1074°N, 124.9139°W)
Time: 13:39:42
(UTC-07:00)

PCSat - Pass Details

Date: 22 May 2022
Orbit: 784 x 795 km, 67.1° (Epoch: 26 June)

Event Time Altitude Azimuth Distance (km) Brightness Sun altitude
Rises 00:43:37 0° 318° (NW) 3,304 13.7 -19.1°
Reaches altitude 10° 00:47:05 10° 340° (NNW) 2,374 13.2 -19.2°
Maximum altitude 00:50:20 16° 17° (NNE) 2,001 12.5 -19.3°
Drops below altitude 10° 00:53:33 10° 53° (NE) 2,372 12.4 -19.3°
Sets 00:57:01 0° 76° (ENE) 3,299 12.9 -19.4°
